Tirstrup, Denmark

10:17 PM CEST on September 23, 2017 (GMT +0200)
Aarhus

Weather History for EKAH - March, 2013

Change the Weather History Date:

Saturday, March 23, 2013

  Actual Average Record
Temperature  
Mean Temperature 22 °F -  
Max Temperature 30 °F 48 °F 55 °F (2003)
Min Temperature 14 °F 33 °F 14 °F (2013)
Degree Days  
Heating Degree Days 42    
Moisture  
Dew Point 13 °F    
Average Humidity 60    
Maximum Humidity 86    
Minimum Humidity 38    
Precipitation  
Precipitation 0.00 in - - ()
Sea Level Pressure  
Sea Level Pressure 30.52 in    
Wind  
Wind Speed 14 mph ()    
Max Wind Speed 21 mph    
Max Gust Speed -    
Visibility 6.8 miles    
Events      
Averages and records for this station are not official NWS values.
T = Trace of Precipitation, MM = Missing Value Source: Averaged Metar Reports

Daily Weather History Graph

Daily Weather History Graph

Search for Another Location

Airport or City:

Trip Planner

Search our weather history database for the weather conditions in past years. The results will help you decide how hot, cold, wet, or windy it might be!

Date:

Astronomy

Mar. 23, 2013 Rise Set
Actual Time 6:11 AM CET 6:37 PM CET
Civil Twilight 5:34 AM CET 7:15 PM CET
Nautical Twilight 4:49 AM CET 8:00 PM CET
Astronomical Twilight 4:01 AM CET 8:49 PM CET
Moon 2:10 PM CET 4:18 AM CET
Length of Visible Light 13h 41m
Length of Day
12h 26m
Waxing Gibbous, 83% of the Moon is Illuminated
Mar 23
Waxing Gibbous
Mar 27
Full
Apr 3
Last Quarter
Apr 10
New
Apr 18
First Quarter

Hourly Weather History & Observations

Time (CET) Temp. Windchill Dew Point Humidity Pressure Visibility Wind Dir Wind Speed Gust Speed Precip Events Conditions
12:20 AM 24.8 °F 10.3 °F 12.2 °F 59% 30.51 in 6.2 mi East 20.7 mph - N/A   Partly Cloudy
12:50 AM 24.8 °F 10.3 °F 12.2 °F 59% 30.51 in 6.2 mi East 20.7 mph - N/A   Partly Cloudy
1:00 AM 24 °F - 12 °F 47% 30.52 in 19 mi Calm Calm - -  
1:20 AM 24.8 °F 10.3 °F 12.2 °F 59% 30.51 in 6.2 mi East 20.7 mph - N/A   Scattered Clouds
1:50 AM 23.0 °F 9.2 °F 12.2 °F 63% 30.51 in 6.2 mi East 17.3 mph - N/A   Scattered Clouds
2:20 AM 23.0 °F 8.0 °F 10.4 °F 59% 30.51 in 6.2 mi East 20.7 mph - N/A   Mostly Cloudy
2:50 AM 24.8 °F 11.1 °F 10.4 °F 54% 30.51 in 6.2 mi East 18.4 mph - N/A   Mostly Cloudy
3:20 AM 23.0 °F 8.3 °F 10.4 °F 59% 30.51 in 6.2 mi East 19.6 mph - N/A   Mostly Cloudy
3:50 AM 23.0 °F 8.7 °F 10.4 °F 59% 30.51 in 6.2 mi East 18.4 mph - N/A   Mostly Cloudy
4:00 AM 24 °F - 11 °F 43% 30.53 in 28 mi Calm Calm - -  
4:20 AM 23.0 °F 8.7 °F 10.4 °F 59% 30.51 in 6.2 mi East 18.4 mph - N/A   Mostly Cloudy
4:50 AM 23.0 °F 9.6 °F 10.4 °F 59% 30.51 in 6.2 mi East 16.1 mph - N/A   Scattered Clouds
5:20 AM 23.0 °F 9.6 °F 10.4 °F 59% 30.51 in 6.2 mi East 16.1 mph - N/A   Scattered Clouds
5:50 AM 23.0 °F 9.2 °F 12.2 °F 63% 30.54 in 6.2 mi East 17.3 mph - N/A   Scattered Clouds
6:20 AM 23.0 °F 10.1 °F 12.2 °F 63% 30.54 in 6.2 mi East 15.0 mph - N/A   Mostly Cloudy
6:50 AM 23.0 °F 10.1 °F 12.2 °F 63% 30.54 in 6.2 mi East 15.0 mph - N/A   Mostly Cloudy
7:00 AM 23 °F - 12 °F 49% 30.55 in 28 mi Calm Calm - -  
7:20 AM 23.0 °F 9.6 °F 12.2 °F 63% 30.54 in 6.2 mi East 16.1 mph - N/A   Scattered Clouds
7:50 AM 24.8 °F 11.9 °F 12.2 °F 59% 30.54 in 6.2 mi East 16.1 mph - N/A   Unknown
8:20 AM 24.8 °F 11.9 °F 12.2 °F 59% 30.54 in 6.2 mi East 16.1 mph - N/A   Partly Cloudy
8:50 AM 24.8 °F 10.7 °F 14.0 °F 64% 30.54 in 6.2 mi East 19.6 mph - N/A   Scattered Clouds
9:20 AM 26.6 °F 13.1 °F 14.0 °F 59% 30.54 in 6.2 mi East 19.6 mph - N/A   Unknown
9:50 AM 26.6 °F 13.4 °F 14.0 °F 59% 30.54 in 6.2 mi East 18.4 mph - N/A   Partly Cloudy
10:00 AM 26 °F - 14 °F 48% 30.56 in 22 mi Calm Calm - -  
10:20 AM 26.6 °F 13.4 °F 14.0 °F 59% 30.54 in 6.2 mi East 18.4 mph - N/A   Partly Cloudy
10:50 AM 26.6 °F 13.4 °F 14.0 °F 59% 30.54 in 6.2 mi ENE 18.4 mph - N/A   Unknown
11:20 AM 28.4 °F 15.1 °F 14.0 °F 55% 30.54 in 6.2 mi East 20.7 mph - N/A   Unknown
11:50 AM 28.4 °F 15.8 °F 15.8 °F 59% 30.54 in 6.2 mi ENE 18.4 mph - N/A   Partly Cloudy
12:20 PM 28.4 °F 15.4 °F 15.8 °F 59% 30.54 in 6.2 mi East 19.6 mph - N/A   Partly Cloudy
12:50 PM 28.4 °F 16.2 °F 15.8 °F 59% 30.54 in 6.2 mi East 17.3 mph - N/A   Partly Cloudy
1:00 PM 29 °F - 15 °F 44% 30.54 in 19 mi Calm Calm - -  
1:20 PM 28.4 °F 16.2 °F 14.0 °F 55% 30.54 in 6.2 mi East 17.3 mph - N/A   Partly Cloudy
1:50 PM 30.2 °F 19.8 °F 14.0 °F 51% 30.51 in 6.2 mi East 13.8 mph - N/A   Partly Cloudy
2:20 PM 30.2 °F 19.3 °F 15.8 °F 55% 30.51 in 6.2 mi East 15.0 mph - N/A   Unknown
2:50 PM 30.2 °F 19.3 °F 14.0 °F 51% 30.51 in 6.2 mi ENE 15.0 mph - N/A   Partly Cloudy
3:20 PM 30.2 °F 21.3 °F 14.0 °F 51% 30.51 in 6.2 mi ENE 10.4 mph - N/A   Unknown
3:50 PM 30.2 °F 21.9 °F 14.0 °F 51% 30.51 in 6.2 mi ENE 9.2 mph - N/A   Unknown
4:00 PM 30 °F - 14 °F 38% 30.52 in 25 mi Calm Calm - -  
6:20 PM 28.4 °F - 15.8 °F 59% 30.51 in 6.2 mi Calm Calm - N/A   Unknown
6:50 PM 26.6 °F - 15.8 °F 64% 30.51 in 6.2 mi Calm Calm - N/A   Unknown
7:00 PM 26 °F - 16 °F 53% 30.52 in 31 mi Calm Calm - -  
7:20 PM 26.6 °F - 15.8 °F 64% 30.51 in 6.2 mi Calm Calm - N/A   Unknown
7:50 PM 24.8 °F - 15.8 °F 69% 30.51 in 6.2 mi Calm Calm - N/A   Unknown
8:20 PM 24.8 °F - 15.8 °F 69% 30.51 in 6.2 mi Calm Calm - N/A   Unknown
8:50 PM 23.0 °F - 15.8 °F 74% 30.51 in 6.2 mi Calm Calm - N/A   Unknown
9:20 PM 21.2 °F - 12.2 °F 68% 30.51 in 6.2 mi Calm Calm - N/A   Unknown
9:50 PM 19.4 °F - 12.2 °F 74% 30.51 in 6.2 mi Calm Calm - N/A   Unknown
10:00 PM 19 °F - 12 °F 64% 30.51 in 22 mi Calm Calm - -  
10:20 PM 17.6 °F - 12.2 °F 79% 30.51 in 6.2 mi Calm Calm - N/A   Unknown
10:50 PM 17.6 °F - 12.2 °F 79% 30.51 in 6.2 mi Calm Calm - N/A   Unknown
11:20 PM 15.8 °F - 10.4 °F 79% 30.51 in 6.2 mi Calm Calm - N/A   Unknown
11:50 PM 14.0 °F - 10.4 °F 86% 30.51 in 6.2 mi Calm Calm - N/A   Unknown